San Diego, CA

5:46 PM PST on December 05, 2016 (GMT -0800)
San Diego International-Lindbergh

Weather History for KSAN - December, 2013

Change the Weather History Date:

Monday, December 2, 2013

  Actual Average Record
Temperature  
Mean Temperature 65 °F 58 °F  
Max Temperature 76 °F 66 °F 83 °F (1959)
Min Temperature 53 °F 50 °F 42 °F (1991)
Degree Days  
Heating Degree Days 0 7  
Month to date heating degree days 0 14  
Since 1 July heating degree days 70 159  
Cooling Degree Days 0 0  
Month to date cooling degree days 0 0  
Year to date cooling degree days 761 720  
Growing Degree Days 14 (Base 50)    
Moisture  
Dew Point 35 °F    
Average Humidity 36    
Maximum Humidity 55    
Minimum Humidity 17    
Precipitation  
Precipitation 0.00 in 0.04 in 3.34 in (1854)
Month to date precipitation 0.00 0.08  
Year to date precipitation 5.11 8.89  
Since 1 July precipitation 1.78  
Snow  
Snow 0.00 in - - ()
Month to date snowfall 0.0  
Year to date snowfall 0.0  
Snow Depth 0.00 in    
Sea Level Pressure  
Sea Level Pressure 30.02 in    
Wind  
Wind Speed 2 mph (NW)    
Max Wind Speed 9 mph    
Max Gust Speed 14 mph    
Visibility 10 miles    
Events      
T = Trace of Precipitation, MM = Missing Value Source: NWS Daily Summary

Daily Weather History Graph

Daily Weather History Graph

Search for Another Location

Airport or City:

Trip Planner

Search our weather history database for the weather conditions in past years. The results will help you decide how hot, cold, wet, or windy it might be!

Date:

Astronomy

Dec. 02, 2013 Rise Set
Actual Time 6:34 AM PST 4:42 PM PST
Civil Twilight 6:07 AM PST 5:09 PM PST
Nautical Twilight 5:36 AM PST 5:39 PM PST
Astronomical Twilight 5:06 AM PST 6:09 PM PST
Moon 6:06 AM PST (12/2) 4:48 PM PST (12/2)
Length of Visible Light 11h 02m
Length of Day
10h 08m
Waning Crescent, 0% of the Moon is Illuminated
Dec 2
Waning Crescent
Dec 2
New
Dec 9
First Quarter
Dec 17
Full
Dec 25
Last Quarter

Hourly Weather History & Observations

Time (PST) Temp. Dew Point Humidity Pressure Visibility Wind Dir Wind Speed Gust Speed Precip Events Conditions
12:51 AM 57.0 °F 41.0 °F 55% 30.11 in 10.0 mi Calm Calm - N/A   Partly Cloudy
1:51 AM 61.0 °F 34.0 °F 36% 30.08 in 10.0 mi Calm Calm - N/A   Partly Cloudy
2:51 AM 57.0 °F 35.1 °F 44% 30.08 in 10.0 mi NNW 4.6 mph - N/A   Partly Cloudy
3:51 AM 55.0 °F 35.1 °F 47% 30.06 in 10.0 mi Calm Calm - N/A   Partly Cloudy
4:51 AM 54.0 °F 34.0 °F 47% 30.08 in 10.0 mi Calm Calm - N/A   Partly Cloudy
5:51 AM 53.1 °F 36.0 °F 52% 30.08 in 10.0 mi Calm Calm - N/A   Scattered Clouds
6:51 AM 55.0 °F 33.1 °F 43% 30.10 in 10.0 mi Calm Calm - N/A   Mostly Cloudy
7:51 AM 57.9 °F 34.0 °F 41% 30.09 in 10.0 mi Calm Calm - N/A   Mostly Cloudy
8:51 AM 64.9 °F 30.9 °F 28% 30.10 in 10.0 mi Calm Calm - N/A   Mostly Cloudy
9:51 AM 66.9 °F 34.0 °F 30% 30.09 in 10.0 mi Calm Calm - N/A   Mostly Cloudy
10:51 AM 68.0 °F 37.9 °F 33% 30.08 in 9.0 mi Calm Calm - N/A   Mostly Cloudy
11:51 AM 73.0 °F 27.0 °F 18% 30.04 in 10.0 mi Calm Calm - N/A   Mostly Cloudy
12:51 PM 75.0 °F 28.9 °F 18% 30.01 in 10.0 mi NW 5.8 mph - N/A   Mostly Cloudy
1:51 PM 72.0 °F 28.9 °F 20% 30.00 in 10.0 mi NW 8.1 mph - N/A   Mostly Cloudy
2:51 PM 73.0 °F 32.0 °F 22% 29.97 in 10.0 mi WNW 5.8 mph - N/A   Mostly Cloudy
3:51 PM 72.0 °F 30.0 °F 21% 29.96 in 10.0 mi NNW 4.6 mph - N/A   Mostly Cloudy
4:51 PM 70.0 °F 33.1 °F 26% 29.96 in 10.0 mi Calm Calm - N/A   Mostly Cloudy
5:51 PM 66.9 °F 37.0 °F 33% 29.96 in 10.0 mi North 3.5 mph - N/A   Mostly Cloudy
6:51 PM 64.9 °F 46.9 °F 52% 29.97 in 10.0 mi Calm Calm - N/A   Mostly Cloudy
7:51 PM 64.9 °F 48.9 °F 56% 29.96 in 10.0 mi Calm Calm - N/A   Mostly Cloudy
8:51 PM 64.0 °F 36.0 °F 35% 29.96 in 10.0 mi Calm Calm - N/A   Mostly Cloudy
9:51 PM 61.0 °F 39.0 °F 44% 29.94 in 10.0 mi Calm Calm - N/A   Mostly Cloudy
10:51 PM 60.1 °F 37.9 °F 44% 29.95 in 10.0 mi Calm Calm - N/A   Mostly Cloudy
11:51 PM 59.0 °F 41.0 °F 51% 29.94 in 10.0 mi Calm Calm - N/A   Mostly Cloudy